COSMOS 2251 DEB, 34885

Orbit data source: Space-Track

COSMOS 2251 DEB, 34885 is space debris in LEO originally from a launch on Wed, 16 Jun 1993 UTC launched from the Plesetsk Missile And Space Complex (PKMTR). The debris from Iridium 33, an American commercial communications satellite, has been tracked extensively since its accidental collision with the defunct Russian satellite Cosmos 2251 in 2009. This event, occurring at high speed in low Earth orbit (LEO), generated thousands of pieces of space debris, significantly increasing the risk of further collisions. The Iridium 33 debris cloud has impacted space traffic management and orbital debris mitigation strategies, making it a subject of ongoing study in space situational awareness.

Loading next visibility...
Identifier
34885, 1993-036ACY
Orbit
LEO
Country
Flag of CISCIS
Related business
Manufacturer
Unknown
Mission
Spacecraft
Bus & Motor
Unknown
Mass
Unknown
Launch date (UTC)
1993-06-16 (33 years ago)
Launch vehicle
Unknown
Launch site
Plesetsk Missile And Space Complex (PKMTR)
Object type
Payload
Rocket body
Debris
Shape & HBR
Unknown shape, 0.1 m
Radar Cross Section
Small (<0.1 m²)

Expand to show TLE details & history
Last TLE update: 12 hours ago

TLE from 12 hours ago
0 COSMOS 2251 DEB
1 34885U 93036ACY 26119.90597682  .00002483  00000-0  61608-3 0  9995
2 34885  74.0301 282.6703 0014165 337.0378 147.8284 14.52340587894847
Epoch: 2026-04-29T21:44Z
TLE epoch observation values (Epoch: 2026-04-29T21:44:36.397Z)
Latitude
52.10757°
Longitude
-102.79487°
Altitude
734.627 km
Speed
7.488 km/s
True Right ascension
05h 24m 52s
True Declination
51° 56' 25"
Sunlit
Object was in daylight at epoch
Visualization orbit readout
Latitude
Unknown
Longitude
Unknown
Altitude
Unknown
Speed
Unknown
Apparent Right ascension
Unknown
Apparent Declination
Unknown
Sunlit
N/A
Visualization observer readout
Local Sidereal Time
17:26:56
Azimuth
Unknown
Elevation
Unknown
Doppler factor
Unknown
Orbital elements
Apogee altitude
725.669 km
Perigee altitude
705.572 km
Semi-major axis
7,093.758 km
Eccentricity
0.00142
Inclination
74.0301°
RAAN
282.6703°
Arg. of periapsis
337.0378°
True anomaly
147.9147°
Mean anomaly
147.8284°
Eccentric anomaly
147.87156°
Mean motion
3.63269 °/min
Orbital period
99.1 mins
BSTAR
0.00061608
Loading maneuver chart data...
Computing Atmospheric mass density...

Documentation

Showing up to 5 results
|